This demonstration page uses our WeatherBlox Daily Observations layout. Learn more.

Hourly Observations for October 14, 2019

Temp ( °F °C ) Dew Point ( °F °C ) Humidity (%) Winds ( mph kmh ) Pressure ( in mb ) Visibility ( mi km ) Precip ( " mm )
12:53 am 00:53 Clear 44 6.7 40 4.4 85 85 WSW 5 7 29.97 1015 10 16.0934 0 0
1:53 am 01:53 Clear 44 6.7 39 3.9 83 83 Calm 29.98 1015 10 16.0934 0 0
2:53 am 02:53 Clear 41 5 37 2.8 86 86 Calm 29.99 1016 10 16.0934 0 0
3:53 am 03:53 Clear 41 5 38 3.3 89 89 Calm 29.99 1016 10 16.0934 0 0
4:53 am 04:53 Clear 39 3.9 38 3.3 96 96 Calm 30.01 1016 10 16.0934 0 0
5:53 am 05:53 Clear 37 2.8 36 2.2 96 96 Calm 30.03 1017 10 16.0934 0 0
6:53 am 06:53 Clear 37 2.8 36 2.2 96 96 Calm 30.05 1018 10 16.0934 0 0
7:53 am 07:53 Sunny 36 2.2 35 1.7 97 97 Calm 30.08 1019 10 16.0934 0 0
8:53 am 08:53 Sunny 43 6.1 41 5 93 93 Calm 30.1 1019 10 16.0934 0 0
9:53 am 09:53 Sunny 50 10 41 5 71 71 Calm 30.11 1020 10 16.0934 0 0
10:53 am 10:53 Sunny 56 13.3 40 4.4 55 55 VRB 3 6 30.11 1020 10 16.0934 0 0
11:53 am 11:53 Sunny 60 15.6 37 2.8 42 42 SW 8 13 30.11 1020 10 16.0934 0 0
12:53 pm 12:53 Sunny 63 17.2 37 2.8 38 38 W 8 13 30.11 1020 10 16.0934 0 0
1:53 pm 13:53 Sunny 65 18.3 35 1.7 33 33 WNW 7 11 30.1 1019 10 16.0934 0 0
2:53 pm 14:53 Sunny 66 18.9 36 2.2 33 33 W 9 15 30.07 1018 10 16.0934 0 0
3:53 pm 15:53 Sunny 68 20 37 2.8 32 32 undefined N/A 30.07 1018 10 16.0934 0 0
4:53 pm 16:53 Sunny 67 19.4 37 2.8 33 33 W 9 15 30.07 1018 10 16.0934 0 0
5:53 pm 17:53 Sunny 65 18.3 37 2.8 36 36 W 6 9 30.08 1019 10 16.0934 0 0
6:53 pm 18:53 Sunny 59 15 40 4.4 49 49 W 3 6 30.08 1019 10 16.0934 0 0
7:53 pm 19:53 Clear 48 8.9 42 5.6 80 80 Calm 30.1 1019 10 16.0934 0 0
8:53 pm 20:53 Clear 45 7.2 41 5 86 86 Calm 30.11 1020 10 16.0934 0 0
9:53 pm 21:53 Clear 42 5.6 40 4.4 92 92 Calm 30.12 1020 10 16.0934 0 0
10:53 pm 22:53 Clear 40 4.4 39 3.9 97 97 Calm 30.12 1020 10 16.0934 0 0
11:53 pm 23:53 Clear 39 3.9 38 3.3 96 96 Calm 30.13 1020 10 16.0934 0 0

Powered by AerisWeather